{"data":{"norad_id":59789,"intl_designator":"2024-093H","name":"STARLINK-31863","alt_names":[],"object_type":"PAYLOAD","status":"ACTIVE","operator":null,"country":"US","launch_date":"2024-05-18","launch_site_code":"AFETR","launch_vehicle":null,"mission":null,"orbit_class":"UNKNOWN","rcs_meters":null,"size_class":null,"mass_kg":null,"dimensions":null,"purposes":["comms"],"wikipedia_slug":null,"has_3d_model":false,"image_url":null,"decayed_at":null,"tle_current":{"epoch":"2026-09-21T11:44:07.743264Z","epoch_age_seconds":89342,"freshness":"FRESH","line1":"1 59789U 24093H   26264.48897851 -.00002290  00000+0 -73742-4 0  9997","line2":"2 59789  43.0012 182.8473 0001177 260.9473  99.1246 15.27576455132644","mean_motion":15.27576455,"eccentricity":0.0001177,"inclination_deg":43.0012,"raan_deg":182.8473,"arg_perigee_deg":260.9473,"mean_anomaly_deg":99.1246,"bstar":-7.3742e-5,"rev_number":13264,"period_min":94.266967475615,"perigee_km":482.2521482126,"apogee_km":483.86727391838,"semimajor_km":6861.1967110655,"source":"CELESTRAK","updated_at":"2026-09-22T09:00:49.072831Z"}}}